Theta_e
349 349 349 349 349 350 350 350 350 349 349 349 350 351 351 351 350 348 348 349 350 350 350 350 351 351 351 351 350 348 344 343 346 349 349 349 348 348 349 350 350 350
351 351 351 351 351 351 351 351 350 349 349 349 349 350 351 351 351 349 348 349 350 351 351 350 351 351 352 351 351 350 349 346 344 346 347 347 347 348 349 349 349 350
349 350 351 351 351 351 351 350 350 350 350 350 350 350 350 351 351 350 349 349 350 351 352 351 351 351 351 351 351 351 350 349 347 346 347 348 348 349 350 350 350 349
347 348 349 350 351 351 351 351 350 350 350 350 350 350 350 350 350 350 350 351 351 351 351 352 351 352 351 351 351 351 351 350 349 348 349 349 349 349 351 351 351 349
345 346 347 349 350 351 351 351 350 350 350 349 349 349 349 349 349 351 352 352 353 353 352 352 351 351 351 351 351 351 351 350 350 350 350 350 350 349 350 352 352 350
344 345 346 347 349 350 350 351 350 349 349 349 349 348 348 349 350 352 352 350 349 352 353 352 351 351 351 351 351 350 350 350 350 350 350 350 351 351 351 352 352 351
344 345 346 346 347 349 350 351 351 350 349 349 349 348 348 349 349 351 352 350 347 349 352 352 351 351 350 350 350 350 350 349 349 349 349 350 350 351 352 352 352 352
342 345 346 346 346 348 350 351 351 351 351 350 349 348 347 348 347 348 350 350 348 347 350 352 352 351 350 350 349 349 349 349 349 349 349 350 350 351 351 352 352 352
341 343 345 346 346 347 348 349 350 351 351 351 350 348 347 347 347 349 350 350 350 349 348 351 353 352 351 350 349 349 349 349 349 349 349 350 350 350 350 350 352 352
339 342 344 345 346 347 347 347 348 349 351 351 351 350 349 349 349 350 351 351 352 353 351 352 353 352 351 351 350 350 350 349 349 349 349 350 350 350 350 350 350 351
338 341 343 343 344 347 348 347 347 347 348 350 351 351 351 351 351 350 351 352 352 353 352 353 353 352 351 351 350 350 349 349 349 349 349 349 349 349 349 349 350 350
337 339 342 343 343 345 347 348 348 347 347 347 347 349 350 350 351 350 351 352 352 352 352 353 353 353 352 351 350 349 349 349 349 348 348 348 349 349 349 349 349 349
337 338 341 343 342 343 345 347 348 348 347 345 344 346 347 348 348 349 350 351 351 351 352 352 352 352 352 351 351 350 349 348 348 347 348 348 348 348 348 348 349 349
336 337 340 342 342 343 344 346 347 347 346 345 343 344 346 347 347 348 348 349 350 351 351 352 352 351 352 352 352 351 350 350 349 348 347 347 347 347 347 348 348 348
335 337 339 342 342 342 343 344 345 346 346 345 344 345 346 348 348 348 348 349 349 350 350 351 351 351 351 351 351 352 352 352 351 351 349 348 347 347 347 347 347 348
334 337 339 340 341 341 342 344 344 345 345 345 345 345 346 348 348 348 349 349 350 350 350 351 351 350 350 350 351 351 352 353 353 353 352 350 348 347 347 347 347 347
335 337 338 337 339 341 342 343 343 343 344 345 345 345 346 347 347 348 348 348 350 350 350 351 351 351 351 351 351 352 352 353 353 353 352 350 349 348 347 347 347 347
336 337 336 335 338 340 342 343 343 343 344 344 345 345 346 347 347 348 348 348 348 349 350 350 350 351 352 352 352 352 352 353 352 352 352 350 350 349 348 348 348 348
336 337 336 335 336 338 341 343 343 343 343 343 344 345 345 347 347 348 348 348 348 348 349 349 349 350 351 351 351 351 351 351 352 352 351 351 350 350 350 350 349 349
336 336 336 336 336 337 339 341 342 343 342 342 343 344 345 346 346 347 347 348 348 348 349 349 348 348 348 348 349 349 349 350 350 351 352 351 351 351 351 351 351 350
335 335 336 336 336 336 337 338 340 341 341 342 342 343 344 344 344 345 346 347 347 348 348 349 349 349 348 348 348 349 349 349 349 350 351 351 351 351 351 352 352 351
334 335 335 335 336 336 337 337 338 340 341 341 342 342 343 343 343 344 345 346 348 348 348 349 349 349 349 349 349 350 350 350 350 350 350 350 350 351 351 352 352 352
334 335 335 335 336 336 337 338 339 340 341 341 342 342 342 342 343 343 344 346 347 347 347 347 348 348 348 348 348 349 350 350 350 350 350 350 350 350 350 351 351 352
334 334 335 335 335 336 336 337 339 340 340 341 342 342 342 342 343 344 344 345 346 346 346 346 347 347 347 346 347 347 348 348 348 349 350 350 350 350 350 351 351 350
333 334 335 335 335 335 335 336 338 339 340 341 342 341 341 341 343 344 345 345 346 346 346 347 347 346 346 346 346 347 346 346 346 347 348 348 349 349 350 350 350 350
334 334 335 335 334 334 334 335 337 338 340 342 341 340 340 340 342 344 344 345 346 346 346 346 346 346 346 346 347 347 347 346 346 346 346 347 347 348 348 348 348 349
Wind_Speed
15 16 17 17 19 20 21 22 23 24 25 26 27 28 28 27 26 27 28 25 24 26 26 26 27 28 27 25 23 23 24 27 28 27 25 24 24 23 22 21 19 19
15 17 18 19 20 21 22 22 23 23 24 25 27 29 29 27 24 26 27 25 24 26 26 26 27 27 28 26 24 23 23 24 26 27 26 25 25 24 24 23 21 20
15 16 17 18 21 22 23 23 23 23 23 24 25 28 30 28 25 24 26 26 26 26 27 27 26 26 27 27 26 25 24 24 24 25 25 25 25 25 24 23 22 22
17 16 16 17 19 21 23 23 23 23 23 24 26 27 29 29 26 24 24 25 26 26 27 27 26 26 26 26 27 26 26 26 25 24 25 26 26 26 25 22 21 21
19 18 16 16 17 19 21 23 24 24 24 26 26 26 26 27 27 25 24 23 23 23 24 25 25 26 26 26 27 27 27 27 27 26 26 26 26 27 25 22 20 19
19 18 17 16 16 17 19 21 23 23 24 25 25 24 24 25 25 26 26 25 23 21 20 20 22 24 26 26 26 26 27 27 27 26 26 27 27 27 25 22 20 19
18 18 18 16 16 16 17 18 19 20 21 22 23 22 24 25 25 25 26 25 25 24 21 19 20 22 25 26 26 26 27 27 27 26 26 27 27 27 26 23 22 21
18 18 18 18 16 15 17 17 16 17 17 17 18 19 21 24 25 25 23 23 27 28 25 21 20 21 24 26 27 27 27 27 27 27 27 27 27 28 28 26 23 23
19 18 18 18 17 15 16 16 16 15 14 14 15 16 17 19 22 22 20 23 27 29 27 24 22 22 24 26 27 27 27 28 28 28 28 28 28 29 29 28 25 24
19 18 18 18 18 17 15 15 15 15 13 12 13 13 12 15 18 18 18 21 24 24 24 24 23 24 25 27 28 28 29 29 29 29 29 29 29 29 29 29 27 26
18 18 19 19 18 17 16 15 14 15 14 12 12 12 12 13 15 17 18 20 21 21 21 22 22 23 25 26 28 30 30 31 30 30 30 29 30 30 29 29 28 28
17 18 19 19 19 18 17 16 15 14 13 12 11 11 11 12 13 15 17 19 19 19 20 20 20 21 23 25 26 28 29 30 30 30 30 29 29 29 29 29 29 29
16 18 18 19 19 18 18 17 15 14 13 11 12 13 12 12 14 16 17 18 18 18 18 19 20 21 22 23 24 26 27 29 29 29 29 29 29 29 29 29 29 30
17 18 17 18 18 18 18 17 16 15 13 12 14 16 14 13 14 15 16 16 17 17 17 18 19 21 22 23 24 24 26 27 28 28 28 28 29 29 29 29 29 30
21 19 17 17 17 17 18 17 17 16 14 12 13 14 13 13 14 14 14 14 15 16 16 17 18 20 22 22 23 24 24 25 26 26 27 28 28 29 29 29 29 30
22 20 17 17 17 18 18 17 17 17 16 14 14 14 14 14 14 15 15 15 15 15 16 16 17 20 21 21 21 22 23 24 24 25 26 27 27 28 29 29 29 30
20 18 18 18 18 18 18 18 18 17 16 15 14 14 15 14 14 14 15 16 16 17 18 18 19 20 20 19 19 20 22 23 24 25 25 25 26 27 28 29 29 29
18 18 18 19 19 19 20 19 19 18 15 14 14 15 15 15 14 14 14 15 16 18 19 20 21 21 20 20 19 19 20 21 23 23 24 24 25 26 27 28 29 28
17 18 19 19 19 20 21 20 20 20 17 15 15 15 15 15 15 15 15 15 16 17 19 20 20 21 21 21 21 20 19 20 22 23 24 24 24 25 26 27 27 27
18 18 19 20 20 20 21 21 20 20 19 18 16 15 15 15 15 16 16 15 16 17 17 19 19 19 19 19 19 19 20 20 22 23 24 25 25 26 26 26 26 26
19 20 20 21 21 20 21 21 21 20 20 19 17 15 15 15 15 16 16 15 15 16 17 18 18 17 16 16 16 17 18 18 20 22 24 24 25 26 26 25 25 26
20 21 21 21 21 21 21 21 21 20 20 18 16 15 15 16 16 15 16 15 14 15 16 17 17 17 16 15 15 15 15 17 19 21 22 22 23 24 25 25 25 25
21 21 21 22 22 22 22 22 21 20 20 18 16 15 15 15 15 15 15 14 14 15 16 16 16 16 16 16 16 15 15 17 18 21 21 21 21 22 23 24 25 26
21 22 22 22 22 22 22 22 21 20 20 18 15 14 14 14 14 15 15 14 13 14 14 14 13 13 13 15 16 15 15 15 16 18 19 20 20 21 21 23 24 25
22 22 22 22 22 23 23 22 21 21 20 18 15 14 14 14 13 14 15 15 13 13 12 13 13 13 13 13 13 13 13 14 14 15 17 17 18 19 20 22 23 24
21 21 22 22 22 23 23 22 21 20 19 17 15 15 15 14 13 14 16 15 13 13 14 14 14 13 13 13 12 11 12 13 14 15 15 16 16 18 19 20 22 24
Wind_Direction
311 298 289 284 277 273 271 267 264 259 256 252 251 253 255 256 255 243 234 235 242 247 249 248 247 246 246 247 245 237 230 228 229 231 237 244 250 254 255 255 258 262
325 312 300 291 283 279 274 270 268 263 259 256 252 252 252 254 252 242 236 237 241 245 247 247 246 245 244 246 245 240 233 229 229 231 236 242 247 252 254 255 255 258
333 321 308 296 287 281 277 273 269 264 263 261 258 254 250 248 247 240 237 239 241 242 245 246 246 245 244 245 245 243 238 234 230 229 233 238 243 249 253 254 253 253
338 329 316 303 294 288 282 275 269 266 264 262 260 258 253 246 241 236 235 239 241 241 243 244 245 244 243 243 243 242 241 239 237 235 238 241 244 248 252 253 251 249
340 334 322 307 298 293 286 276 271 269 268 266 262 259 256 249 240 235 234 237 239 237 238 241 244 243 242 241 240 240 241 241 242 243 245 248 248 248 250 250 247 245
339 337 329 313 298 293 288 279 275 272 269 269 266 261 256 249 241 237 236 239 242 239 235 237 241 242 241 239 238 238 239 240 242 243 245 248 251 250 249 247 244 242
337 336 334 325 304 291 289 285 282 279 272 267 266 264 259 251 246 241 238 243 249 246 240 237 239 241 241 238 236 236 238 240 242 242 243 245 247 249 249 248 246 243
337 336 336 332 319 299 291 289 285 284 281 272 265 259 255 252 250 245 239 243 248 246 242 239 239 243 242 238 236 235 237 239 241 241 241 241 242 244 246 247 248 245
336 338 337 335 330 317 302 296 293 289 286 281 271 258 244 242 247 246 239 239 244 245 245 244 244 246 245 241 239 238 238 239 240 240 240 240 240 240 242 243 245 245
336 339 339 337 334 327 316 310 307 302 293 284 278 270 250 241 245 246 240 238 243 247 249 250 249 249 249 246 243 242 242 241 241 242 242 243 242 242 241 240 241 242
337 338 339 339 336 330 322 316 313 307 299 287 282 280 267 252 247 245 241 241 244 248 251 254 254 252 251 249 247 246 245 244 244 244 245 245 245 244 242 240 240 241
337 336 337 338 338 334 327 319 313 307 301 295 291 288 279 267 258 251 247 245 246 249 251 255 257 256 254 252 252 251 250 248 247 246 246 246 246 244 243 241 241 242
335 335 335 336 337 337 332 325 317 309 306 296 275 264 258 256 254 252 251 248 245 245 247 252 256 259 258 256 255 255 255 254 252 250 249 248 247 246 245 245 244 243
333 333 333 334 335 335 334 332 326 317 308 287 263 255 249 245 245 247 249 248 244 241 241 246 250 254 256 257 255 255 256 256 255 254 253 251 251 250 249 249 247 244
332 331 331 331 332 332 333 332 331 327 317 295 273 265 260 254 251 251 249 248 246 242 238 237 241 247 251 254 255 254 254 255 256 256 256 255 254 254 253 252 250 247
331 331 331 330 328 327 329 330 330 330 325 310 289 274 268 265 260 253 247 244 243 243 241 236 236 243 248 251 253 253 253 253 255 256 258 257 256 256 256 254 252 250
331 333 333 330 325 323 324 327 328 326 321 313 302 289 280 276 269 259 249 243 240 240 242 241 239 242 244 246 247 248 249 251 253 255 256 256 256 255 255 255 254 253
332 334 334 329 324 321 320 323 325 324 319 311 304 298 290 283 277 271 261 252 246 243 243 244 245 244 243 243 243 243 243 245 249 252 253 254 255 255 255 256 256 255
331 330 331 328 323 319 319 321 322 322 321 316 309 302 293 286 281 279 273 262 254 250 249 250 250 248 245 243 242 242 242 242 245 249 250 251 253 253 254 254 254 254
330 327 325 325 323 319 318 319 320 320 320 321 317 307 295 288 284 282 278 268 259 256 257 259 261 259 253 247 245 244 244 245 246 248 249 250 251 251 251 252 252 252
326 324 321 319 321 321 318 317 318 318 320 322 322 313 301 295 289 281 277 274 267 259 258 260 263 265 261 254 250 249 248 247 247 248 249 249 250 251 249 250 251 251
321 321 318 316 317 319 318 316 316 317 319 320 319 314 306 302 297 282 270 271 270 262 258 258 259 261 261 259 256 254 252 249 247 247 246 244 245 245 244 246 248 248
318 317 316 315 315 315 314 315 315 315 318 318 316 313 306 301 300 290 273 267 268 262 259 260 260 258 256 255 254 251 250 249 247 248 248 247 246 244 244 247 247 245
315 315 314 314 314 313 312 314 313 314 316 316 312 308 301 293 291 288 276 269 267 263 260 260 263 262 257 253 250 245 244 245 248 251 251 250 250 250 250 252 252 250
314 313 314 313 313 313 313 313 312 313 315 315 310 306 301 291 283 281 277 270 266 266 264 260 262 266 263 257 251 245 241 238 241 246 247 247 248 249 251 253 254 256
315 313 314 314 314 315 315 314 312 311 313 313 309 307 304 294 285 284 283 276 269 268 268 264 260 260 260 256 249 241 236 234 236 237 239 242 243 245 249 251 253 256